Alamosa, CO

8:51 AM MDT on August 23, 2017 (GMT -0600)
San Luis Valley Regional / Bergman Field

Weather History for KALS - June, 2013

Change the Weather History Date:

Wednesday, June 19, 2013

  Actual Average Record
Temperature  
Mean Temperature 59 °F 61 °F  
Max Temperature 85 °F 80 °F 93 °F (2016)
Min Temperature 33 °F 41 °F 26 °F (1939)
Degree Days  
Heating Degree Days 6 5  
Month to date heating degree days 82 132  
Since 1 June heating degree days 82 132  
Since 1 July heating degree days 9023 8558  
Cooling Degree Days 0 0  
Month to date cooling degree days 3 0  
Year to date cooling degree days 3 0  
Since 1 June cooling degree days 3 0  
Growing Degree Days 8 (Base 50)    
Moisture  
Dew Point 16 °F    
Average Humidity 43    
Maximum Humidity 82    
Minimum Humidity 4    
Precipitation  
Precipitation 0.01 in 0.02 in 0.56 in (1933)
Month to date precipitation 0.01 0.28  
Year to date precipitation 1.07 2.50  
Snow  
Snow 0.00 in 0.00 in 0.00 in (2002)
Month to date snowfall 0.0 0.0  
Since 1 June snowfall 0.0 0.0  
Since 1 July snowfall 21.1 27.6  
Snow Depth 0.00 in    
Sea Level Pressure  
Sea Level Pressure 29.82 in    
Wind  
Wind Speed 10 mph (SW)    
Max Wind Speed 29 mph    
Max Gust Speed 37 mph    
Visibility 10 miles    
Events      
T = Trace of Precipitation, MM = Missing Value Source: NWS Daily Summary

Daily Weather History Graph

Daily Weather History Graph

Search for Another Location

Airport or City:

Trip Planner

Search our weather history database for the weather conditions in past years. The results will help you decide how hot, cold, wet, or windy it might be!

Date:

Astronomy

Jun. 19, 2013 Rise Set
Actual Time 5:42 AM MDT 8:27 PM MDT
Civil Twilight 5:11 AM MDT 8:58 PM MDT
Nautical Twilight 4:32 AM MDT 9:37 PM MDT
Astronomical Twilight 3:48 AM MDT 10:21 PM MDT
Moon 4:26 PM MDT (6/19) 2:24 AM MDT (6/19)
Length of Visible Light 15h 47m
Length of Day
14h 44m
Waxing Gibbous, 81% of the Moon is Illuminated
Jun 19
Waxing Gibbous
Jun 23
Full
Jun 29
Last Quarter
Jul 8
New
Jul 15
First Quarter

Hourly Weather History & Observations

Time (MDT) Temp. Windchill Dew Point Humidity Pressure Visibility Wind Dir Wind Speed Gust Speed Precip Events Conditions
12:52 AM 42.1 °F - 34.0 °F 73% 29.88 in 10.0 mi Calm Calm - N/A   Clear
1:52 AM 43.0 °F 41.3 °F 33.1 °F 68% 29.87 in 10.0 mi WNW 3.5 mph - N/A   Clear
2:52 AM 39.9 °F - 34.0 °F 79% 29.86 in 10.0 mi Calm Calm - N/A   Clear
3:52 AM 37.0 °F - 30.9 °F 79% 29.87 in 10.0 mi Calm Calm - N/A   Clear
4:52 AM 33.1 °F 28.7 °F 28.0 °F 82% 29.89 in 10.0 mi West 4.6 mph - N/A   Clear
5:52 AM 35.1 °F - 30.0 °F 82% 29.89 in 10.0 mi Calm Calm - N/A   Clear
6:52 AM 41.0 °F - 32.0 °F 70% 29.89 in 10.0 mi Calm Calm - N/A   Clear
7:52 AM 51.1 °F - 36.0 °F 56% 29.88 in 10.0 mi Calm Calm - N/A   Clear
8:52 AM 59.0 °F - 37.9 °F 46% 29.87 in 10.0 mi Calm Calm - N/A   Clear
9:52 AM 73.9 °F - 23.0 °F 15% 29.81 in 10.0 mi South 15.0 mph 20.7 mph N/A   Clear
10:52 AM 79.0 °F - -0.0 °F 5% 29.79 in 10.0 mi SSW 23.0 mph 32.2 mph N/A   Clear
11:52 AM 80.1 °F - 6.1 °F 6% 29.81 in 10.0 mi SSW 25.3 mph 35.7 mph N/A   Clear
12:52 PM 82.0 °F - 8.1 °F 6% 29.81 in 10.0 mi SSW 24.2 mph 34.5 mph N/A   Clear
1:52 PM 82.9 °F - 3.0 °F 5% 29.78 in 10.0 mi SSW 17.3 mph 31.1 mph N/A   Clear
2:52 PM 84.9 °F - 3.0 °F 4% 29.78 in 10.0 mi SW 25.3 mph 34.5 mph N/A   Clear
3:52 PM 84.0 °F - 1.9 °F 4% 29.78 in 10.0 mi SW 17.3 mph 27.6 mph N/A   Clear
4:52 PM 84.0 °F - 3.0 °F 4% 29.78 in 10.0 mi West 18.4 mph 26.5 mph N/A   Clear
5:52 PM 82.9 °F - 1.0 °F 4% 29.77 in 6.0 mi WSW 17.3 mph 26.5 mph N/A   Haze
6:52 PM 81.0 °F - 6.1 °F 6% 29.76 in 10.0 mi WSW 16.1 mph - N/A   Clear
7:52 PM 75.0 °F - 10.9 °F 9% 29.75 in 10.0 mi West 11.5 mph - N/A   Clear
8:52 PM 62.1 °F - 12.9 °F 15% 29.78 in 10.0 mi West 6.9 mph - N/A   Clear
9:52 PM 57.9 °F - 12.0 °F 16% 29.76 in 10.0 mi WSW 4.6 mph - N/A   Clear
10:52 PM 48.9 °F - 12.0 °F 23% 29.79 in 10.0 mi SSW 5.8 mph - N/A   Clear
11:52 PM 51.1 °F - 12.0 °F 21% 29.78 in 10.0 mi SW 4.6 mph - N/A   Clear